| time (UTC) | temp F | wind direction | speed MPH | gust MPH | rain 1hr in | rain 24hr in | rain mn in | humidity % | barometer mb |
| 20260901161036 | 53 | 248 | 9.0 | 20.0 | 0.00 | 0.00 | 0.00 | 85 | 1013.8 |
| 20260901160539 | 53 | 263 | 7.0 | 20.0 | 0.00 | 0.00 | 0.00 | 85 | 1013.7 |
| 20260901160049 | 53 | 298 | 7.0 | 15.0 | 0.00 | 0.00 | 0.00 | 85 | 1013.7 |
| 20260901155536 | 53 | 227 | 9.0 | 18.0 | 0.00 | 0.00 | 0.00 | 85 | 1013.6 |
| 20260901155036 | 53 | 257 | 10.0 | 18.0 | 0.00 | 0.00 | 0.00 | 84 | 1013.5 |
| 20260901154546 | 53 | 269 | 9.0 | 17.0 | 0.00 | 0.00 | 0.00 | 84 | 1013.5 |
| 20260901154036 | 53 | 291 | 9.0 | 17.0 | 0.00 | 0.00 | 0.00 | 84 | 1013.3 |
| 20260901153543 | 53 | 261 | 10.0 | 20.0 | 0.00 | 0.00 | 0.00 | 84 | 1013.3 |
| 20260901153101 | 53 | 267 | 10.0 | 21.0 | 0.00 | 0.00 | 0.00 | 85 | 1013.2 |
| 20260901152536 | 53 | 257 | 11.0 | 21.0 | 0.00 | 0.00 | 0.00 | 86 | 1013.2 |
| 20260901152039 | 53 | 236 | 8.0 | 15.0 | 0.00 | 0.00 | 0.00 | 86 | 1013.3 |
| 20260901151553 | 53 | 295 | 8.0 | 15.0 | 0.00 | 0.00 | 0.00 | 86 | 1013.4 |
| 20260901151039 | 53 | 245 | 8.0 | 16.0 | 0.00 | 0.00 | 0.00 | 85 | 1013.5 |
| 20260901150537 | 53 | 277 | 8.0 | 16.0 | 0.00 | 0.00 | 0.00 | 85 | 1013.4 |
| 20260901145540 | 53 | 230 | 10.0 | 16.0 | 0.00 | 0.00 | 0.00 | 85 | 1013.4 |
| 20260901145038 | 53 | 297 | 10.0 | 16.0 | 0.00 | 0.00 | 0.00 | 85 | 1013.4 |
| 20260901144558 | 53 | 233 | 7.0 | 15.0 | 0.00 | 0.00 | 0.00 | 86 | 1013.5 |
| 20260901144035 | 53 | 250 | 7.0 | 15.0 | 0.00 | 0.00 | 0.00 | 85 | 1013.5 |
| 20260901143539 | 53 | 256 | 10.0 | 16.0 | 0.00 | 0.00 | 0.00 | 85 | 1013.5 |
| 20260901143105 | 52 | 244 | 9.0 | 16.0 | 0.00 | 0.00 | 0.00 | 85 | 1013.4 |
| 20260901142539 | 52 | 248 | 10.0 | 16.0 | 0.00 | 0.00 | 0.00 | 85 | 1013.5 |
| 20260901142039 | 52 | 257 | 8.0 | 13.0 | 0.00 | 0.00 | 0.00 | 84 | 1013.6 |
| 20260901141604 | 52 | 248 | 8.0 | 18.0 | 0.00 | 0.00 | 0.00 | 84 | 1013.6 |
| 20260901141039 | 52 | 253 | 8.0 | 18.0 | 0.00 | 0.00 | 0.00 | 84 | 1013.7 |
| 20260901140538 | 51 | 257 | 8.0 | 14.0 | 0.00 | 0.00 | 0.00 | 84 | 1013.8 |
| 20260901140058 | 51 | 240 | 7.0 | 13.0 | 0.00 | 0.00 | 0.00 | 85 | 1013.7 |
| 20260901135543 | 50 | 243 | 5.0 | 11.0 | 0.00 | 0.00 | 0.00 | 85 | 1013.7 |
| 20260901135040 | 50 | 245 | 6.0 | 13.0 | 0.00 | 0.00 | 0.00 | 86 | 1013.8 |
| 20260901134619 | 50 | 284 | 5.0 | 13.0 | 0.00 | 0.00 | 0.00 | 85 | 1013.8 |
| 20260901134040 | 50 | 293 | 4.0 | 11.0 | 0.00 | 0.00 | 0.00 | 84 | 1013.7 |
| 20260901133542 | 50 | 311 | 6.0 | 11.0 | 0.00 | 0.00 | 0.00 | 84 | 1013.8 |
| 20260901133101 | 50 | 305 | 7.0 | 9.0 | 0.00 | 0.00 | 0.00 | 85 | 1013.8 |
| 20260901132539 | 50 | 261 | 4.0 | 10.0 | 0.00 | 0.00 | 0.00 | 85 | 1013.9 |
| 20260901132040 | 50 | 280 | 5.0 | 11.0 | 0.00 | 0.00 | 0.00 | 85 | 1013.8 |
| 20260901131549 | 50 | 242 | 4.0 | 11.0 | 0.00 | 0.00 | 0.00 | 86 | 1013.7 |
| 20260901131039 | 49 | 245 | 4.0 | 11.0 | 0.00 | 0.00 | 0.00 | 86 | 1013.7 |
| 20260901130540 | 50 | 269 | 4.0 | 11.0 | 0.00 | 0.00 | 0.00 | 85 | 1013.7 |
| 20260901130059 | 50 | 270 | 4.0 | 10.0 | 0.00 | 0.00 | 0.00 | 86 | 1013.5 |
| 20260901125539 | 50 | 291 | 5.0 | 10.0 | 0.00 | 0.00 | 0.00 | 85 | 1013.5 |
| 20260901125039 | 50 | 248 | 5.0 | 11.0 | 0.00 | 0.00 | 0.00 | 86 | 1013.4 |
| 20260901124600 | 49 | 267 | 5.0 | 11.0 | 0.00 | 0.00 | 0.00 | 86 | 1013.4 |
| 20260901124042 | 49 | 253 | 5.0 | 10.0 | 0.00 | 0.00 | 0.00 | 86 | 1013.2 |
| 20260901123539 | 49 | 261 | 5.0 | 10.0 | 0.00 | 0.00 | 0.00 | 86 | 1013.4 |
| 20260901123055 | 49 | 241 | 4.0 | 12.0 | 0.00 | 0.00 | 0.00 | 86 | 1013.4 |
| 20260901122540 | 49 | 244 | 4.0 | 12.0 | 0.00 | 0.00 | 0.00 | 86 | 1013.4 |
| 20260901122040 | 49 | 242 | 5.0 | 12.0 | 0.00 | 0.00 | 0.00 | 86 | 1013.4 |
| 20260901121549 | 50 | 277 | 7.0 | 12.0 | 0.00 | 0.00 | 0.00 | 86 | 1013.4 |
| 20260901121039 | 50 | 240 | 6.0 | 10.0 | 0.00 | 0.00 | 0.00 | 86 | 1013.3 |
| 20260901120540 | 50 | 290 | 6.0 | 10.0 | 0.00 | 0.00 | 0.00 | 86 | 1013.3 |
| 20260901120056 | 49 | 244 | 5.0 | 13.0 | 0.00 | 0.00 | 0.00 | 87 | 1013.3 |
| 20260901115539 | 49 | 272 | 4.0 | 13.0 | 0.00 | 0.00 | 0.00 | 86 | 1013.3 |
| 20260901115039 | 49 | 255 | 5.0 | 13.0 | 0.00 | 0.00 | 0.00 | 87 | 1013.4 |
| 20260901114601 | 49 | 259 | 4.0 | 9.0 | 0.00 | 0.00 | 0.00 | 87 | 1013.5 |
| 20260901114039 | 49 | 246 | 5.0 | 9.0 | 0.00 | 0.00 | 0.00 | 87 | 1013.5 |
| 20260901113539 | 49 | 269 | 5.0 | 9.0 | 0.00 | 0.00 | 0.00 | 87 | 1013.6 |
| 20260901113051 | 49 | 287 | 4.0 | 10.0 | 0.00 | 0.00 | 0.00 | 86 | 1013.5 |
| 20260901112539 | 49 | 244 | 3.0 | 11.0 | 0.00 | 0.00 | 0.00 | 86 | 1013.5 |
| 20260901112039 | 49 | 243 | 5.0 | 11.0 | 0.00 | 0.00 | 0.00 | 86 | 1013.6 |
| 20260901111549 | 49 | 243 | 5.0 | 11.0 | 0.00 | 0.00 | 0.00 | 87 | 1013.6 |
| 20260901111040 | 49 | 279 | 5.0 | 9.0 | 0.00 | 0.00 | 0.00 | 87 | 1013.4 |
| 20260901110538 | 49 | 255 | 4.0 | 9.0 | 0.00 | 0.00 | 0.00 | 87 | 1013.3 |
| 20260901110058 | 49 | 290 | 4.0 | 10.0 | 0.00 | 0.00 | 0.00 | 88 | 1013.3 |
| 20260901105539 | 49 | 239 | 4.0 | 12.0 | 0.00 | 0.00 | 0.00 | 88 | 1013.3 |
| 20260901105040 | 48 | 244 | 5.0 | 12.0 | 0.00 | 0.00 | 0.00 | 88 | 1013.3 |
| 20260901104553 | 49 | 243 | 8.0 | 12.0 | 0.00 | 0.00 | 0.00 | 87 | 1013.5 |
| 20260901104039 | 49 | 290 | 8.0 | 10.0 | 0.00 | 0.00 | 0.00 | 88 | 1013.6 |
| 20260901103538 | 48 | 254 | 4.0 | 7.0 | 0.00 | 0.00 | 0.00 | 90 | 1013.8 |
| 20260901103100 | 48 | 311 | 2.0 | 7.0 | 0.00 | 0.00 | 0.00 | 91 | 1013.8 |
| 20260901102539 | 48 | 49 | 1.0 | 7.0 | 0.00 | 0.00 | 0.00 | 90 | 1013.8 |
| 20260901102040 | 48 | 38 | 0.0 | 7.0 | 0.00 | 0.00 | 0.00 | 90 | 1013.6 |
| 20260901101547 | 48 | 64 | 3.0 | 8.0 | 0.00 | 0.00 | 0.00 | 91 | 1013.5 |
| 20260901101039 | 47 | 289 | 5.0 | 8.0 | 0.00 | 0.00 | 0.00 | 93 | 1013.5 |
| 20260901100538 | 46 | 235 | 0.0 | 4.0 | 0.00 | 0.00 | 0.00 | 92 | 1013.5 |
| 20260901100058 | 46 | 0 | 1.0 | 3.0 | 0.00 | 0.00 | 0.00 | 92 | 1013.4 |
| 20260901095541 | 46 | 234 | 1.0 | 3.0 | 0.00 | 0.00 | 0.00 | 92 | 1013.4 |
| 20260901095039 | 46 | 234 | 0.0 | 2.0 | 0.00 | 0.00 | 0.00 | 92 | 1013.4 |
| 20260901094558 | 46 | 234 | 0.0 | 2.0 | 0.00 | 0.00 | 0.00 | 92 | 1013.4 |
| 20260901094038 | 46 | 0 | 0.0 | 2.0 | 0.00 | 0.00 | 0.00 | 92 | 1013.4 |
| 20260901093539 | 46 | 0 | 0.0 | 2.0 | 0.00 | 0.00 | 0.00 | 92 | 1013.4 |
| 20260901093052 | 46 | 0 | 0.0 | 2.0 | 0.00 | 0.00 | 0.00 | 92 | 1013.3 |
| 20260901092543 | 45 | 0 | 0.0 | 1.0 | 0.00 | 0.00 | 0.00 | 92 | 1013.3 |
| 20260901092039 | 45 | 0 | 0.0 | 1.0 | 0.00 | 0.00 | 0.00 | 92 | 1013.3 |
| 20260901091552 | 45 | 0 | 0.0 | 1.0 | 0.00 | 0.00 | 0.00 | 93 | 1013.2 |
| 20260901091036 | 45 | 0 | 0.0 | 0.0 | 0.00 | 0.00 | 0.00 | 92 | 1013.2 |
| 20260901090538 | 45 | 0 | 0.0 | 1.0 | 0.00 | 0.00 | 0.00 | 92 | 1013.3 |
| 20260901090056 | 45 | 0 | 0.0 | 1.0 | 0.00 | 0.00 | 0.00 | 92 | 1013.2 |
| 20260901085539 | 45 | 0 | 0.0 | 1.0 | 0.00 | 0.00 | 0.00 | 92 | 1013.2 |
| 20260901085039 | 45 | 0 | 0.0 | 1.0 | 0.00 | 0.00 | 0.00 | 92 | 1013.1 |
| 20260901084557 | 45 | 0 | 0.0 | 1.0 | 0.00 | 0.00 | 0.00 | 91 | 1013.1 |
| 20260901084040 | 45 | 0 | 0.0 | 1.0 | 0.00 | 0.00 | 0.00 | 91 | 1013.0 |
| 20260901083540 | 45 | 0 | 0.0 | 1.0 | 0.00 | 0.00 | 0.00 | 91 | 1013.0 |
| 20260901083059 | 45 | 0 | 0.0 | 0.0 | 0.00 | 0.00 | 0.00 | 91 | 1013.0 |
| 20260901082538 | 46 | 0 | 0.0 | 1.0 | 0.00 | 0.00 | 0.00 | 91 | 1012.9 |
| 20260901082039 | 46 | 0 | 0.0 | 1.0 | 0.00 | 0.00 | 0.00 | 91 | 1012.9 |
| 20260901081557 | 46 | 0 | 0.0 | 1.0 | 0.00 | 0.00 | 0.00 | 91 | 1013.2 |
| 20260901081039 | 45 | 0 | 0.0 | 2.0 | 0.00 | 0.00 | 0.00 | 91 | 1013.0 |
| 20260901080539 | 45 | 0 | 0.0 | 2.0 | 0.00 | 0.00 | 0.00 | 91 | 1013.0 |
| 20260901080058 | 45 | 0 | 0.0 | 1.0 | 0.00 | 0.00 | 0.00 | 91 | 1012.9 |
| 20260901075539 | 45 | 0 | 0.0 | 2.0 | 0.00 | 0.00 | 0.00 | 91 | 1012.8 |
| 20260901075039 | 45 | 234 | 0.0 | 2.0 | 0.00 | 0.00 | 0.00 | 91 | 1012.5 |
| 20260901074603 | 44 | 234 | 0.0 | 1.0 | 0.00 | 0.00 | 0.00 | 90 | 1012.5 |
| 20260901074039 | 44 | 0 | 0.0 | 2.0 | 0.00 | 0.00 | 0.00 | 91 | 1012.6 |
| 20260901073539 | 44 | 234 | 0.0 | 2.0 | 0.00 | 0.00 | 0.00 | 90 | 1012.7 |
| 20260901073102 | 44 | 0 | 0.0 | 1.0 | 0.00 | 0.00 | 0.00 | 89 | 1012.7 |
| 20260901072543 | 44 | 0 | 0.0 | 2.0 | 0.00 | 0.00 | 0.00 | 89 | 1012.7 |
| 20260901072040 | 44 | 0 | 0.0 | 2.0 | 0.00 | 0.00 | 0.00 | 89 | 1012.7 |
| 20260901071557 | 44 | 0 | 1.0 | 2.0 | 0.00 | 0.00 | 0.00 | 88 | 1012.7 |
| 20260901071038 | 45 | 275 | 1.0 | 2.0 | 0.00 | 0.00 | 0.00 | 88 | 1012.7 |
| 20260901070538 | 45 | 272 | 1.0 | 2.0 | 0.00 | 0.00 | 0.00 | 87 | 1012.6 |
| 20260901070057 | 46 | 0 | 0.0 | 0.0 | 0.00 | 0.00 | 0.00 | 87 | 1012.5 |
| 20260901065539 | 46 | 0 | 0.0 | 0.0 | 0.00 | 0.00 | 0.00 | 87 | 1012.6 |
| 20260901065039 | 46 | 0 | 0.0 | 0.0 | 0.00 | 0.00 | 0.00 | 87 | 1012.6 |
| 20260901064553 | 47 | 0 | 0.0 | 0.0 | 0.00 | 0.00 | 0.00 | 87 | 1012.5 |
| 20260901064039 | 47 | 0 | 0.0 | 0.0 | 0.00 | 0.00 | 0.00 | 87 | 1012.6 |
| 20260901063538 | 47 | 0 | 0.0 | 0.0 | 0.00 | 0.00 | 0.00 | 86 | 1012.5 |
| 20260901063047 | 47 | 0 | 0.0 | 0.0 | 0.00 | 0.00 | 0.00 | 85 | 1012.3 |
| 20260901062540 | 47 | 0 | 0.0 | 0.0 | 0.00 | 0.00 | 0.00 | 85 | 1012.3 |
| 20260901062038 | 48 | 0 | 0.0 | 0.0 | 0.00 | 0.00 | 0.00 | 84 | 1012.4 |
| 20260901061556 | 48 | 0 | 0.0 | 0.0 | 0.00 | 0.00 | 0.00 | 83 | 1012.4 |
| 20260901061039 | 49 | 0 | 0.0 | 0.0 | 0.00 | 0.00 | 0.00 | 82 | 1012.4 |
| 20260901060540 | 49 | 0 | 0.0 | 0.0 | 0.00 | 0.00 | 0.00 | 81 | 1012.4 |
| 20260901060058 | 50 | 0 | 0.0 | 0.0 | 0.00 | 0.00 | 0.00 | 80 | 1012.3 |
| 20260901055539 | 51 | 0 | 0.0 | 1.0 | 0.00 | 0.00 | 0.00 | 80 | 1012.2 |
| 20260901055039 | 51 | 0 | 0.0 | 4.0 | 0.00 | 0.00 | 0.00 | 80 | 1012.2 |
| 20260901054553 | 51 | 0 | 0.0 | 4.0 | 0.00 | 0.00 | 0.00 | 79 | 1012.1 |
| 20260901054039 | 52 | 274 | 2.0 | 6.0 | 0.00 | 0.00 | 0.00 | 79 | 1012.2 |
| 20260901053541 | 52 | 267 | 2.0 | 6.0 | 0.00 | 0.00 | 0.00 | 79 | 1012.1 |
| 20260901053052 | 52 | 257 | 4.0 | 6.0 | 0.00 | 0.00 | 0.00 | 79 | 1012.3 |
| 20260901052538 | 52 | 281 | 2.0 | 6.0 | 0.00 | 0.00 | 0.00 | 78 | 1012.2 |
| 20260901052039 | 53 | 272 | 3.0 | 10.0 | 0.00 | 0.00 | 0.00 | 78 | 1012.2 |
| 20260901051559 | 53 | 275 | 4.0 | 10.0 | 0.00 | 0.00 | 0.00 | 77 | 1012.3 |
| 20260901051038 | 53 | 296 | 4.0 | 8.0 | 0.00 | 0.00 | 0.00 | 77 | 1012.2 |
| 20260901050540 | 53 | 290 | 4.0 | 9.0 | 0.00 | 0.00 | 0.00 | 76 | 1012.3 |
| 20260901050053 | 54 | 242 | 4.0 | 10.0 | 0.00 | 0.00 | 0.00 | 75 | 1012.3 |
| 20260901045536 | 54 | 253 | 4.0 | 10.0 | 0.00 | 0.00 | 0.00 | 74 | 1012.2 |
| 20260901045039 | 54 | 253 | 5.0 | 14.0 | 0.00 | 0.00 | 0.00 | 73 | 1012.2 |
| 20260901044547 | 54 | 246 | 8.0 | 14.0 | 0.00 | 0.00 | 0.00 | 73 | 1012.2 |
| 20260901044036 | 54 | 248 | 8.0 | 14.0 | 0.00 | 0.00 | 0.00 | 74 | 1012.2 |
| 20260901043537 | 54 | 244 | 8.0 | 13.0 | 0.00 | 0.00 | 0.00 | 74 | 1012.1 |
| 20260901043048 | 55 | 246 | 8.0 | 14.0 | 0.00 | 0.00 | 0.00 | 73 | 1012.1 |
| 20260901042536 | 55 | 263 | 9.0 | 14.0 | 0.00 | 0.00 | 0.00 | 72 | 1011.9 |
| 20260901042039 | 55 | 250 | 7.0 | 15.0 | 0.00 | 0.00 | 0.00 | 71 | 1011.9 |
| 20260901041559 | 55 | 249 | 8.0 | 16.0 | 0.00 | 0.00 | 0.00 | 71 | 1011.8 |
| 20260901041036 | 55 | 235 | 8.0 | 16.0 | 0.00 | 0.00 | 0.00 | 71 | 1011.8 |
| 20260901040537 | 55 | 232 | 8.0 | 15.0 | 0.00 | 0.00 | 0.00 | 71 | 1011.8 |
| 20260901040110 | 55 | 259 | 9.0 | 14.0 | 0.00 | 0.00 | 0.00 | 71 | 1011.8 |
| 20260901035536 | 55 | 242 | 8.0 | 14.0 | 0.00 | 0.00 | 0.00 | 69 | 1011.9 |
| 20260901035036 | 55 | 257 | 9.0 | 13.0 | 0.00 | 0.00 | 0.00 | 69 | 1011.8 |
| 20260901034549 | 56 | 263 | 6.0 | 12.0 | 0.00 | 0.00 | 0.00 | 69 | 1011.8 |
| 20260901034037 | 56 | 251 | 6.0 | 14.0 | 0.00 | 0.00 | 0.00 | 67 | 1011.8 |
| 20260901033615 | 56 | 254 | 7.0 | 15.0 | 0.00 | 0.00 | 0.00 | 68 | 1011.6 |
| 20260901033057 | 56 | 302 | 9.0 | 17.0 | 0.00 | 0.00 | 0.00 | 67 | 1011.5 |
| 20260901032538 | 56 | 271 | 8.0 | 17.0 | 0.00 | 0.00 | 0.00 | 69 | 1011.4 |
| 20260901032036 | 56 | 304 | 11.0 | 17.0 | 0.00 | 0.00 | 0.00 | 67 | 1011.3 |
| 20260901031556 | 56 | 290 | 7.0 | 15.0 | 0.00 | 0.00 | 0.00 | 67 | 1011.4 |
| 20260901031036 | 56 | 272 | 8.0 | 19.0 | 0.00 | 0.00 | 0.00 | 65 | 1011.4 |
| 20260901030536 | 56 | 237 | 7.0 | 19.0 | 0.00 | 0.00 | 0.00 | 66 | 1011.4 |
| 20260901030050 | 56 | 285 | 8.0 | 16.0 | 0.00 | 0.00 | 0.00 | 65 | 1011.3 |
| 20260901025539 | 56 | 263 | 7.0 | 16.0 | 0.00 | 0.00 | 0.00 | 67 | 1011.3 |
| 20260901025040 | 56 | 234 | 9.0 | 14.0 | 0.00 | 0.00 | 0.00 | 70 | 1011.3 |
| 20260901024600 | 56 | 253 | 7.0 | 16.0 | 0.00 | 0.00 | 0.00 | 68 | 1011.3 |
| 20260901024036 | 56 | 245 | 11.0 | 16.0 | 0.00 | 0.00 | 0.00 | 64 | 1011.3 |
| 20260901023538 | 57 | 310 | 9.0 | 15.0 | 0.00 | 0.00 | 0.00 | 67 | 1011.1 |
| 20260901023100 | 57 | 275 | 8.0 | 17.0 | 0.00 | 0.00 | 0.00 | 67 | 1011.1 |
| 20260901022536 | 56 | 241 | 10.0 | 17.0 | 0.00 | 0.00 | 0.00 | 67 | 1011.1 |
| 20260901022037 | 56 | 238 | 10.0 | 17.0 | 0.00 | 0.00 | 0.00 | 63 | 1010.9 |
| 20260901021557 | 56 | 229 | 8.0 | 17.0 | 0.00 | 0.00 | 0.00 | 61 | 1011.0 |
| 20260901021037 | 56 | 239 | 10.0 | 18.0 | 0.00 | 0.00 | 0.00 | 63 | 1011.0 |
| 20260901020536 | 55 | 246 | 9.0 | 19.0 | 0.00 | 0.00 | 0.00 | 66 | 1011.0 |
| 20260901020051 | 55 | 247 | 13.0 | 19.0 | 0.00 | 0.00 | 0.00 | 59 | 1011.1 |
| 20260901015537 | 55 | 238 | 12.0 | 20.0 | 0.00 | 0.00 | 0.00 | 64 | 1010.9 |
| 20260901015039 | 56 | 257 | 13.0 | 20.0 | 0.00 | 0.00 | 0.00 | 62 | 1011.0 |
| 20260901014602 | 56 | 234 | 12.0 | 17.0 | 0.00 | 0.00 | 0.00 | 63 | 1011.0 |
| 20260901014036 | 55 | 246 | 11.0 | 17.0 | 0.00 | 0.00 | 0.00 | 62 | 1011.1 |
| 20260901013540 | 55 | 228 | 13.0 | 19.0 | 0.00 | 0.00 | 0.00 | 62 | 1010.9 |
| 20260901013110 | 54 | 234 | 12.0 | 20.0 | 0.00 | 0.00 | 0.00 | 64 | 1011.0 |
| 20260901012536 | 55 | 234 | 15.0 | 20.0 | 0.00 | 0.00 | 0.00 | 63 | 1011.0 |
| 20260901012036 | 55 | 232 | 11.0 | 20.0 | 0.00 | 0.00 | 0.00 | 69 | 1011.0 |
| 20260901011558 | 55 | 244 | 14.0 | 20.0 | 0.00 | 0.00 | 0.00 | 61 | 1011.1 |
| 20260901011039 | 55 | 250 | 11.0 | 18.0 | 0.00 | 0.00 | 0.00 | 63 | 1011.2 |
| 20260901010536 | 55 | 242 | 13.0 | 18.0 | 0.00 | 0.00 | 0.00 | 65 | 1011.3 |
| 20260901010056 | 54 | 246 | 12.0 | 17.0 | 0.00 | 0.00 | 0.00 | 70 | 1011.3 |
| 20260901005541 | 53 | 232 | 11.0 | 15.0 | 0.00 | 0.00 | 0.00 | 66 | 1011.4 |
| 20260901005039 | 53 | 238 | 10.0 | 16.0 | 0.00 | 0.00 | 0.00 | 66 | 1011.4 |
| 20260901004554 | 53 | 253 | 11.0 | 16.0 | 0.00 | 0.00 | 0.00 | 65 | 1011.5 |
| 20260901004039 | 54 | 232 | 12.0 | 16.0 | 0.00 | 0.00 | 0.00 | 65 | 1011.5 |
| 20260901003539 | 54 | 236 | 12.0 | 17.0 | 0.00 | 0.00 | 0.00 | 66 | 1011.6 |
| 20260901003059 | 54 | 244 | 12.0 | 17.0 | 0.00 | 0.00 | 0.00 | 69 | 1011.6 |
| 20260901002540 | 54 | 240 | 10.0 | 15.0 | 0.00 | 0.00 | 0.00 | 74 | 1011.7 |
| 20260901002037 | 54 | 236 | 11.0 | 15.0 | 0.00 | 0.00 | 0.00 | 68 | 1011.8 |
| 20260901001556 | 53 | 248 | 9.0 | 14.0 | 0.00 | 0.00 | 0.00 | 69 | 1011.9 |
| 20260901001041 | 53 | 244 | 10.0 | 15.0 | 0.00 | 0.00 | 0.00 | 69 | 1011.9 |
| 20260901000536 | 53 | 240 | 9.0 | 15.0 | 0.00 | 0.00 | 0.00 | 69 | 1011.9 |
| 20260901000055 | 53 | 236 | 12.0 | 20.0 | 0.00 | 0.00 | 0.00 | 67 | 1011.8 |
| 20260831235536 | 54 | 232 | 11.0 | 20.0 | 0.00 | 0.00 | 0.00 | 65 | 1011.8 |
| 20260831235038 | 54 | 228 | 12.0 | 20.0 | 0.00 | 0.00 | 0.00 | 70 | 1011.8 |
| 20260831234555 | 54 | 228 | 10.0 | 14.0 | 0.00 | 0.00 | 0.00 | 64 | 1011.7 |
| 20260831234036 | 54 | 232 | 4.0 | 9.0 | 0.00 | 0.00 | 0.00 | 75 | 1011.6 |
| 20260831233540 | 54 | 231 | 5.0 | 9.0 | 0.00 | 0.00 | 0.00 | 75 | 1011.7 |
| 20260831233057 | 53 | 240 | 4.0 | 10.0 | 0.00 | 0.00 | 0.00 | 74 | 1011.7 |
| 20260831232536 | 53 | 239 | 5.0 | 10.0 | 0.00 | 0.00 | 0.00 | 75 | 1011.6 |
| 20260831232041 | 53 | 221 | 4.0 | 6.0 | 0.00 | 0.00 | 0.00 | 75 | 1011.7 |
| 20260831231556 | 52 | 234 | 4.0 | 6.0 | 0.00 | 0.00 | 0.00 | 75 | 1011.7 |
| 20260831231039 | 52 | 240 | 4.0 | 8.0 | 0.00 | 0.00 | 0.00 | 77 | 1011.6 |
| 20260831230536 | 52 | 223 | 4.0 | 8.0 | 0.00 | 0.00 | 0.00 | 79 | 1011.6 |
| 20260831230106 | 51 | 256 | 4.0 | 8.0 | 0.00 | 0.00 | 0.00 | 76 | 1011.6 |
| 20260831225538 | 51 | 236 | 3.0 | 5.0 | 0.00 | 0.00 | 0.00 | 76 | 1011.6 |
| 20260831225036 | 51 | 254 | 2.0 | 5.0 | 0.00 | 0.00 | 0.00 | 77 | 1011.5 |
| 20260831224550 | 51 | 206 | 1.0 | 4.0 | 0.00 | 0.00 | 0.00 | 75 | 1011.6 |
| 20260831224044 | 51 | 207 | 1.0 | 4.0 | 0.00 | 0.00 | 0.00 | 74 | 1011.4 |
| 20260831223542 | 51 | 109 | 2.0 | 4.0 | 0.00 | 0.00 | 0.00 | 75 | 1011.5 |
| 20260831223102 | 51 | 99 | 2.0 | 4.0 | 0.00 | 0.00 | 0.00 | 77 | 1011.4 |
| 20260831222539 | 50 | 86 | 0.0 | 4.0 | 0.00 | 0.00 | 0.00 | 77 | 1011.3 |
| 20260831222036 | 49 | 93 | 1.0 | 5.0 | 0.00 | 0.00 | 0.00 | 78 | 1011.3 |
| 20260831221624 | 49 | 92 | 2.0 | 6.0 | 0.00 | 0.00 | 0.00 | 76 | 1011.3 |
| 20260831221038 | 49 | 103 | 2.0 | 6.0 | 0.00 | 0.00 | 0.00 | 77 | 1011.2 |
| 20260831220536 | 48 | 90 | 0.0 | 7.0 | 0.00 | 0.00 | 0.00 | 79 | 1011.1 |
| 20260831220105 | 48 | 90 | 3.0 | 7.0 | 0.00 | 0.00 | 0.00 | 78 | 1011.1 |
| 20260831215539 | 47 | 108 | 2.0 | 5.0 | 0.00 | 0.00 | 0.00 | 81 | 1011.1 |
| 20260831215040 | 47 | 96 | 2.0 | 4.0 | 0.00 | 0.00 | 0.00 | 82 | 1011.2 |
| 20260831214559 | 47 | 92 | 2.0 | 4.0 | 0.00 | 0.00 | 0.00 | 80 | 1011.1 |
| 20260831214039 | 47 | 92 | 1.0 | 4.0 | 0.00 | 0.00 | 0.00 | 79 | 1011.2 |
| 20260831213537 | 47 | 92 | 1.0 | 3.0 | 0.00 | 0.00 | 0.00 | 78 | 1011.2 |
| 20260831213059 | 47 | 92 | 0.0 | 3.0 | 0.00 | 0.00 | 0.00 | 81 | 1011.1 |
| 20260831212537 | 47 | 91 | 0.0 | 3.0 | 0.00 | 0.00 | 0.00 | 80 | 1010.9 |
| 20260831212040 | 46 | 65 | 0.0 | 3.0 | 0.00 | 0.00 | 0.00 | 80 | 1010.8 |
| 20260831211554 | 46 | 55 | 1.0 | 4.0 | 0.00 | 0.00 | 0.00 | 79 | 1010.8 |
| 20260831211038 | 47 | 72 | 1.0 | 4.0 | 0.00 | 0.00 | 0.00 | 81 | 1010.7 |
| 20260831210536 | 46 | 88 | 1.0 | 4.0 | 0.00 | 0.00 | 0.00 | 83 | 1010.6 |
| 20260831210050 | 46 | 85 | 1.0 | 6.0 | 0.00 | 0.00 | 0.00 | 86 | 1010.5 |
| 20260831205539 | 45 | 89 | 2.0 | 6.0 | 0.00 | 0.00 | 0.00 | 86 | 1010.5 |
| 20260831205040 | 44 | 90 | 1.0 | 4.0 | 0.00 | 0.00 | 0.00 | 88 | 1010.6 |
| 20260831204604 | 44 | 88 | 1.0 | 4.0 | 0.00 | 0.00 | 0.00 | 90 | 1010.6 |
| 20260831204042 | 43 | 82 | 2.0 | 6.0 | 0.00 | 0.00 | 0.00 | 90 | 1010.6 |
| 20260831203540 | 43 | 0 | 1.0 | 6.0 | 0.00 | 0.00 | 0.00 | 93 | 1010.7 |
| 20260831203125 | 42 | 79 | 2.0 | 6.0 | 0.00 | 0.00 | 0.00 | 92 | 1010.7 |
| 20260831202538 | 41 | 0 | 2.0 | 3.0 | 0.00 | 0.00 | 0.00 | 92 | 1010.6 |
| 20260831202036 | 41 | 101 | 1.0 | 3.0 | 0.00 | 0.00 | 0.00 | 93 | 1010.6 |
| 20260831201557 | 40 | 99 | 2.0 | 3.0 | 0.00 | 0.00 | 0.00 | 93 | 1010.4 |
| 20260831201040 | 40 | 90 | 1.0 | 3.0 | 0.00 | 0.00 | 0.00 | 93 | 1010.2 |
| 20260831200539 | 40 | 101 | 2.0 | 5.0 | 0.00 | 0.00 | 0.00 | 93 | 1010.2 |
| 20260831200138 | 39 | 88 | 1.0 | 5.0 | 0.00 | 0.00 | 0.00 | 93 | 1010.3 |
| 20260831195541 | 39 | 96 | 2.0 | 2.0 | 0.00 | 0.00 | 0.00 | 93 | 1010.2 |
| 20260831195036 | 39 | 94 | 0.0 | 1.0 | 0.00 | 0.00 | 0.00 | 93 | 1010.0 |
| 20260831194620 | 39 | 94 | 0.0 | 1.0 | 0.00 | 0.00 | 0.00 | 94 | 1010.0 |
| 20260831194037 | 39 | 0 | 0.0 | 1.0 | 0.00 | 0.00 | 0.00 | 95 | 1010.0 |
| 20260831193535 | 38 | 0 | 0.0 | 3.0 | 0.00 | 0.00 | 0.00 | 95 | 1009.8 |
| 20260831193046 | 37 | 0 | 0.0 | 3.0 | 0.00 | 0.00 | 0.00 | 94 | 1009.8 |
| 20260831192543 | 36 | 94 | 1.0 | 3.0 | 0.00 | 0.00 | 0.00 | 94 | 1009.9 |
| 20260831192039 | 36 | 94 | 0.0 | 1.0 | 0.00 | 0.00 | 0.00 | 94 | 1009.8 |
| 20260831191559 | 36 | 0 | 0.0 | 1.0 | 0.00 | 0.00 | 0.00 | 94 | 1009.8 |
| 20260831191039 | 35 | 0 | 0.0 | 2.0 | 0.00 | 0.00 | 0.00 | 94 | 1009.5 |
| 20260831190540 | 35 | 94 | 0.0 | 3.0 | 0.00 | 0.00 | 0.00 | 94 | 1009.7 |
| 20260831190056 | 35 | 94 | 1.0 | 3.0 | 0.00 | 0.00 | 0.00 | 93 | 1009.5 |
| 20260831185537 | 35 | 93 | 2.0 | 3.0 | 0.00 | 0.00 | 0.00 | 92 | 1009.3 |
| 20260831185038 | 35 | 93 | 0.0 | 3.0 | 0.00 | 0.00 | 0.00 | 93 | 1009.2 |
| 20260831184552 | 36 | 0 | 1.0 | 3.0 | 0.00 | 0.00 | 0.00 | 93 | 1009.3 |
| 20260831184039 | 36 | 103 | 0.0 | 2.0 | 0.00 | 0.00 | 0.00 | 93 | 1009.3 |
| 20260831183540 | 36 | 0 | 0.0 | 1.0 | 0.00 | 0.00 | 0.00 | 93 | 1009.2 |
| 20260831183058 | 36 | 0 | 0.0 | 2.0 | 0.00 | 0.00 | 0.00 | 93 | 1008.9 |
| 20260831182540 | 36 | 0 | 0.0 | 4.0 | 0.00 | 0.00 | 0.00 | 94 | 1008.7 |
| 20260831182040 | 36 | 0 | 2.0 | 4.0 | 0.00 | 0.00 | 0.00 | 95 | 1008.7 |
| 20260831181551 | 36 | 106 | 1.0 | 2.0 | 0.00 | 0.00 | 0.00 | 95 | 1008.7 |
| 20260831181039 | 35 | 0 | 0.0 | 0.0 | 0.00 | 0.00 | 0.00 | 94 | 1008.7 |
| 20260831180539 | 35 | 0 | 0.0 | 2.0 | 0.00 | 0.00 | 0.00 | 94 | 1008.6 |
| 20260831175536 | 34 | 150 | 1.0 | 2.0 | 0.00 | 0.00 | 0.00 | 93 | 1008.6 |
| 20260831175037 | 35 | 153 | 0.0 | 1.0 | 0.00 | 0.00 | 0.00 | 93 | 1008.6 |
| 20260831174552 | 35 | 0 | 0.0 | 2.0 | 0.00 | 0.00 | 0.00 | 92 | 1008.4 |
| 20260831174039 | 35 | 153 | 1.0 | 2.0 | 0.00 | 0.00 | 0.00 | 93 | 1008.4 |
| 20260831173539 | 36 | 153 | 0.0 | 1.0 | 0.00 | 0.00 | 0.00 | 92 | 1008.5 |
| 20260831173103 | 36 | 0 | 0.0 | 1.0 | 0.00 | 0.00 | 0.00 | 93 | 1008.4 |
| 20260831172539 | 36 | 153 | 0.0 | 1.0 | 0.00 | 0.00 | 0.00 | 93 | 1008.4 |
| 20260831172041 | 36 | 154 | 0.0 | 0.0 | 0.00 | 0.00 | 0.00 | 92 | 1008.3 |
| 20260831171556 | 36 | 0 | 0.0 | 0.0 | 0.00 | 0.00 | 0.00 | 92 | 1008.5 |
| 20260831171038 | 36 | 0 | 0.0 | 0.0 | 0.00 | 0.00 | 0.00 | 93 | 1008.5 |
| 20260831170540 | 35 | 0 | 0.0 | 2.0 | 0.00 | 0.00 | 0.00 | 92 | 1008.5 |
| 20260831170052 | 35 | 0 | 0.0 | 2.0 | 0.00 | 0.00 | 0.00 | 91 | 1008.5 |
| 20260831165535 | 35 | 155 | 1.0 | 2.0 | 0.00 | 0.00 | 0.00 | 90 | 1008.5 |
| 20260831165037 | 36 | 155 | 0.0 | 1.0 | 0.00 | 0.00 | 0.00 | 91 | 1008.4 |
| 20260831164548 | 36 | 0 | 0.0 | 1.0 | 0.00 | 0.00 | 0.00 | 91 | 1008.1 |
| 20260831164039 | 37 | 0 | 0.0 | 1.0 | 0.00 | 0.00 | 0.00 | 92 | 1008.0 |
| 20260831163539 | 36 | 0 | 0.0 | 4.0 | 0.00 | 0.00 | 0.00 | 92 | 1008.0 |
| 20260831163057 | 36 | 109 | 2.0 | 4.0 | 0.00 | 0.00 | 0.00 | 90 | 1008.0 |
| 20260831162539 | 37 | 111 | 2.0 | 4.0 | 0.00 | 0.00 | 0.00 | 88 | 1008.0 |
| 20260831162038 | 38 | 67 | 0.0 | 2.0 | 0.00 | 0.00 | 0.00 | 90 | 1007.9 |
| 20260831161557 | 39 | 67 | 0.0 | 1.0 | 0.00 | 0.00 | 0.00 | 89 | 1007.6 |